Home > Weather > Syracuse > Past weeks

Flag for USA Past Weather in Syracuse, New York, USA — Yesterday and Last 2 Weeks

Now
78 °F

Passing clouds.


Feels Like: 80 °F
Forecast: 66 / 82 °F
Wind: 9 mph from Northwest

Location: Syracuse Hancock International Airport

Current Time: Aug 26, 2016 at 7:36:38 PM

Latest Report: Aug 26, 2016 at 6:54 PM


Visibility: 10 mi

Pressure: 30.04 "Hg

Humidity: 64%

Dew Point: 65 °F

Location of SyracuseLocation

Past Weather in Syracuse — Graph

°F

Syracuse Temperature Yesterday

Maximum temperature yesterday: 83 °F (at 5:54 PM)
Minimum temperature yesterday: 72 °F (at 8:54 AM)
Average temperature yesterday: 76 °F

High & Low Weather Summary for the Past Weeks

 TemperatureHumidityPressure
High90 °F (Aug 11, 5:54 PM)100% (Aug 16, 6:54 AM)30.28 "Hg (Aug 16, 6:54 AM)
Low52 °F (Aug 23, 5:54 AM)42% (Aug 22, 2:54 PM)29.68 "Hg (Aug 21, 11:54 AM)
Average74 °F75%29.97 "Hg
* Reported Aug 11 5:54 PM — Aug 26 5:54 PM, Syracuse, Weather by CustomWeather, © 2016

Note: Actual official high and low records may vary slightly from our data, if they occured in-between our weather recording intervals... More about our weather records

Advertising

Syracuse Weather History for the Previous 24 Hours

Scroll right to see more
 ConditionsComfort  
Time TempWeatherWind HumidityBarometerVisibility
5:54 PM
Fri, Aug 26
81 °FScattered clouds.10 mph58%30.04 "Hg10 mi
4:54 PM82 °FScattered clouds.7 mph53%30.03 "Hg10 mi
3:54 PM82 °FScattered clouds.7 mph53%30.03 "Hg10 mi
2:54 PM83 °FScattered clouds.9 mph50%30.04 "Hg10 mi
1:54 PM82 °FScattered clouds.9 mph49%30.04 "Hg10 mi
12:54 PM82 °FScattered clouds.13 mph44%30.03 "Hg10 mi
11:54 AM81 °FScattered clouds.10 mph45%30.03 "Hg10 mi
10:54 AM79 °FScattered clouds.12 mph56%30.03 "Hg10 mi
9:54 AM77 °FScattered clouds.7 mph69%30.02 "Hg10 mi
8:54 AM75 °FScattered clouds.9 mph79%30.01 "Hg10 mi
7:57 AM73 °FPartly sunny.10 mph90%30.02 "Hg10 mi
6:54 AM73 °FOvercast.9 mph94%29.98 "Hg10 mi
5:54 AM73 °FOvercast.9 mph94%29.94 "Hg10 mi
4:54 AM74 °FMostly cloudy.10 mph91%29.91 "Hg10 mi
3:54 AM74 °FMostly cloudy.10 mph88%29.90 "Hg10 mi
2:54 AM74 °FMostly cloudy.7 mph88%29.89 "Hg10 mi
1:54 AM76 °FMostly cloudy.7 mph85%29.88 "Hg10 mi
12:54 AM74 °FMostly cloudy.3 mph91%29.88 "Hg10 mi
11:54 PM
Thu, Aug 25
74 °FOvercast.5 mph94%29.89 "Hg10 mi
10:54 PM74 °FMostly cloudy.3 mph97%29.90 "Hg10 mi
9:54 PM75 °FPassing clouds.5 mph94%29.90 "Hg10 mi
8:54 PM76 °FPartly cloudy.No wind94%29.93 "Hg10 mi
7:54 PM77 °FBroken clouds.No wind88%29.91 "Hg10 mi
Weather by CustomWeather, © 2016

See weather overviewHow to use our weather pages